Accueil
METAR-TAF:

METAR-TAF

Aéroports :

Alpnach, Suisse

latitude: 46-56-19N, longitude: 8-17-03E, altitude: 440 m

Observation

Le bulletin a été fait il y a 36 minutes, à 00:50 UTC
Vent calme
Température 4°C
Humidité 93%
Pression 1007 hPa
Visibilité 10 km ou plus
Ciel couvert à une hauteur de 7100 ft

METAR: LSMA 280050Z AUTO 00000KT 9999NDV OVC071 04/03 Q1007 RMK

Heure: 02:26 (01:26 UTC)


TAF: absent

Observations et prévisions météorologiques de plus de 4000 aéroports (messages METAR et TAF).

Les stations disponibles sont représentées par des disques jaunes et rouges sur la carte.

Passer la souris dessus pour voir le nom de la station.

Cliquer dessus pour voir les observations et prévisions météorologiques.

Pour changer de carte: cliquez sur les boutons verts avec une croix noire pour zoomer, sur le bouton vert avec un tiret pour effectuer un zoom arrière, ou sur les flèches vertes pour les cartes adjacentes.


METAR-TAF: